464  
NZUS93 KARX 292110  
HRRWXR  
 
CURRENT HOURLY OBSERVATIONS ACROSS  
MUCH OF THE UPPER MISSISSIPPI VALLEY  
NATIONAL WEATHER SERVICE LA CROSSE WI  
300 PM CST SUN JAN 29 2023  
 
   
..SOUTHEAST MINNESOTA
 
 
 
CITY SKY/WX TMP DP RH WIND PRES REMARKS  
ROCHESTER SUNNY 2 -7 66 NW13 30.33R WCI -15  
WINONA SUNNY 10 -8 44 N9 30.39S WCI -2  
AUSTIN SUNNY 3 -6 66 NW12 30.36S WCI -13  
ALBERT LEA SUNNY 3 -6 66 NW9 30.36S WCI -11  
DODGE CENTER N/A 1 -8 66 W12 30.34R WCI -15  
PRESTON SUNNY 5 -8 57 NW10 30.33S HAZE WCI -10  
OWATONNA SUNNY 1 -8 66 W12 30.37S WCI -15  
FARIBAULT SUNNY 3 -6 66 W9 30.38S WCI -11  

 
   
..ELSEWHERE IN MINNESOTA
 
 
 
CITY SKY/WX TMP DP RH WIND PRES REMARKS  
MINNEAPOLIS MOSUNNY 6 -8 52 W12 30.39S WCI -9  
INTNL FALLS PTSUNNY -2 -15 54 W7 30.23S WCI -15  
DULUTH SUNNY 0 -11 59 W15 30.23S WCI -19  
RED WING SUNNY 7 -8 51 W8 30.38S WCI -6  
REDWOOD FALLS SUNNY 4 -5 66 W10 30.40F WCI -11  
MANKATO SUNNY 5 -7 57 NW12 30.40F WCI -11  
WORTHINGTON SUNNY 4 -6 63 NW14 30.36F WCI -14  
FAIRMONT PTSUNNY 3 -6 66 NW10 30.39F WCI -12  

 
   
..SOUTHWEST WISCONSIN
 
 
 
CITY SKY/WX TMP DP RH WIND PRES REMARKS  
LA CROSSE SUNNY 10 -7 46 NW9 30.37R WCI -3  
PRAIRIE DU CHI MOSUNNY 14 -1 50 NW8 30.34F WCI 3  
BOSCOBEL SUNNY 17 -3 41 N8 30.33F WCI 7  
LONE ROCK SUNNY 17 2 51 W8 30.31S WCI 7  
PLATTEVILLE SUNNY 16 2 54 N9 30.30R WCI 5  
FORT MC COY SUNNY 10 -6 48 NW6 30.32R WCI 0  
CAMP DOUGLAS SUNNY 12 -7 43 W12 30.29R WCI -2  
MAUSTON-NEW LI SUNNY 13 -2 50 NW9 30.30S WCI 1  
VIROQUA MOSUNNY 9 -3 59 N8 30.28S WCI -4  
WIS DELLS MOSUNNY 17 5 59 W8 30.28S WCI 7  

 
   
..ELSEWHERE IN WISCONSIN
 
 
 
CITY SKY/WX TMP DP RH WIND PRES REMARKS  
MILWAUKEE PTSUNNY 24 11 57 NW9 30.24R WCI 14  
MADISON FLURRIES 16 5 62 NW8 30.28R WCI 5  
GREEN BAY MOSUNNY 18 5 57 W10 30.25S WCI 6  
EAU CLAIRE SUNNY 5 -9 52 W10 30.35R WCI -10  
BLACK RVR FLS SUNNY 10 -7 46 W9 30.34S WCI -4  
MEDFORD SUNNY 7 -9 48 W7 30.23R WCI -5  
WAUSAU SUNNY 11 -7 44 W10 30.24R WCI -3  
WIS RAPIDS SUNNY 10 -8 44 NW12 30.30R WCI -5  
MARSHFIELD SUNNY 6 -8 52 NW13 30.27R WCI -10  
RICE LAKE SUNNY 4 -6 64 W8 30.33S WCI -9  

 
   
..NORTHEAST IOWA
 
 
 
CITY SKY/WX TMP DP RH WIND PRES REMARKS  
WATERLOO CLOUDY 8 -4 58 NW13 30.39R WCI -8  
DUBUQUE SUNNY 15 4 61 NW9 30.29R WCI 3  
DECORAH SUNNY 5 -6 61 NW14 30.32R WCI -12  
MASON CITY CLOUDY 2 -6 69 NW12 30.39R WCI -15  
CHARLES CITY MOSUNNY 3 -6 66 N14 30.37R WCI -15  
OELWEIN MOSUNNY 5 -2 72 NW14 30.36R HAZE WCI -12  

 
   
..ELSEWHERE IN IOWA
 
 
 
CITY SKY/WX TMP DP RH WIND PRES REMARKS  
DES MOINES PTSUNNY 9 -5 53 N10 30.40R WCI -5  
IOWA CITY MOSUNNY 16 4 59 NW14 30.36S WCI 2  
FORT DODGE MOSUNNY 5 -5 63 NW8 30.41R WCI -8  
MARSHALLTOWN CLOUDY 6 -3 66 N14 30.39R WCI -11  
CEDAR RAPIDS MOSUNNY 11 0 61 NW13 30.34R WCI -4  

 
   
..NORTHERN ILLINOIS
 
 
 
CITY SKY/WX TMP DP RH WIND PRES REMARKS  
CHICAGO-OHARE PTSUNNY 27 18 69 N8 30.23R WCI 19  
CHICAGO-MIDWAY CLOUDY 26 18 71 N7 30.23R WCI 18  
MOLINE CLOUDY 20 11 68 NW13 30.31R WCI 7  
ROCKFORD CLOUDY 21 12 68 N10 30.28R WCI 10  
PEORIA CLOUDY 21 15 78 N9G18 30.26S WCI 11  

 
 
NOTE: "FAIR" INDICATES FEW OR NO CLOUDS BELOW 12,000 FEET WITH NO  
SIGNIFICANT WEATHER AND/OR OBSTRUCTIONS TO VISIBILITY. WIND  
SPEEDS ARE IN MILES-PER-HOUR.  
 
 
CLICK HERE TO GO TO PREVIOUS BULLETINS.

The Nexlab WI Page
The Nexlab IA Page
The Nexlab MN Page Main Text Page